Location: Newark
(44.2003°N, 3.2583°E)
Time: 00:35:17
(UTC+00:00)

Explorer 7 - Pass Details

Date: 21 October 2019
Orbit: 485 x 680 km, 50.3° (Epoch: 20 November)

Event Time Altitude Azimuth Distance (km) Brightness Sun altitude
Rises 10:03:13 0° 213° (SSW) 2,565 10.6 31.6°
Reaches altitude 10° 10:05:35 10° 202° (SSW) 1,671 10.0 31.8°
Maximum altitude 10:08:54 30° 140° (SE) 891 10.0 32.0°
Drops below altitude 10° 10:12:12 10° 78° (ENE) 1,667 9.5 32.2°
Sets 10:14:33 0° 67° (ENE) 2,558 10.2 32.4°
